Terminal Aerodrome Forecast
Issued by NWS

Home | Current Version | Previous Version | Graphics & Text | Print | Product List | Glossary On
Versions: 1 2 3 4 5 6 7 8 9 10 11 12 13 14 15 16 17 18 19 20 21
000
FTUS43 KABR 060529
TAFATY
TAF
KATY 060529Z 0606/0706 14011KT P6SM OVC008
      TEMPO 0606/0610 5SM BR
     FM061000 15015G25KT 6SM -RA BR BKN010 OVC020=

USA.gov is the U.S. government's official web portal to all federal, state and local government web resources and services.